Location: München
(48.1351°N, 11.5820°E)
Time: 22:20:49
(UTC+01:00)

ISS - Pass Details

Date: 24 January 2020
Orbit: 415 x 423 km, 51.6° (Epoch: 25 February)

Event Time Altitude Azimuth Distance (km) Brightness Sun altitude
Rises 18:19:19 0° 233° (SW) 2,370 1.4 -13.1°
Reaches altitude 10° 18:21:26 10° 229° (SW) 1,507 0.1 -13.5°
Maximum altitude 18:24:45 56° 151° (SSE) 509 -3.5 -14.0°
Enters shadow 18:26:13 29° 84° (E) 810 -2.9 -14.3°
